Location: Poughquag
(41.6090°N, 73.6820°W)
Time: 12:45:01
(UTC-04:00)

Tiros 1 despin weight - Pass Details

Date: 30 May 2020
Orbit: 593 x 642 km, 48.2° (Epoch: 07 July)

Event Time Altitude Azimuth Distance (km) Brightness Sun altitude
Rises 10:46:41 0° 219° (SW) 2,918 ? 57.1°
Reaches altitude 10° 10:49:06 10° 212° (SSW) 2,006 ? 57.5°
Maximum altitude 10:53:26 42° 142° (SE) 901 ? 58.2°
Drops below altitude 10° 10:57:45 10° 72° (ENE) 1,988 ? 58.9°
Sets 11:00:08 0° 66° (ENE) 2,888 ? 59.3°
